Columbia Falls, MT

10:13 AM MST on February 13, 2016 (GMT -0700)
Glacier Park International

Weather History for KGPI - October, 2011

Change the Weather History Date:

Friday, October 7, 2011

  Actual Average Record
Temperature  
Mean Temperature 48 °F 45 °F  
Max Temperature 49 °F 60 °F 82 °F (1979)
Min Temperature 46 °F 31 °F 16 °F (2000)
Degree Days  
Heating Degree Days 17 20  
Month to date heating degree days 89 129  
Since 1 July heating degree days 464 629  
Cooling Degree Days 0 0  
Month to date cooling degree days 0 0  
Year to date cooling degree days 97 147  
Moisture  
Dew Point 46 °F    
Average Humidity 93    
Maximum Humidity 100    
Minimum Humidity 86    
Precipitation  
Precipitation 0.64 in 0.03 in 0.64 in (2011)
Month to date precipitation 1.21 0.21  
Year to date precipitation 14.36 13.20  
Snow  
Snow 0.00 in - - ()
Month to date snowfall 0.0  
Year to date snowfall 27.0  
Since 1 July snowfall 0.0  
Snow Depth 0.00 in    
Sea Level Pressure  
Sea Level Pressure 29.83 in    
Wind  
Wind Speed 6 mph (SSE)    
Max Wind Speed 15 mph    
Max Gust Speed 17 mph    
Visibility 8 miles    
Events Rain    
T = Trace of Precipitation, MM = Missing Value Source: NWS Daily Summary

Daily Weather History Graph

Daily Weather History Graph

Search for Another Location

Airport or City:

Trip Planner

Search our weather history database for the weather conditions in past years. The results will help you decide how hot, cold, wet, or windy it might be!

Date:

Astronomy

Oct. 07, 2011 Rise Set
Actual Time 7:44 AM MDT 7:04 PM MDT
Civil Twilight 7:13 AM MDT 7:35 PM MDT
Nautical Twilight 6:37 AM MDT 8:11 PM MDT
Astronomical Twilight 6:00 AM MDT 8:47 PM MDT
Moon 5:03 PM MDT (10/7) 3:19 AM MDT (10/7)
Length of Visible Light 12h 21m
Length of Day
11h 19m
Waxing Gibbous, 84% of the Moon is Illuminated
Oct 7
Waxing Gibbous
Oct 11
Full
Oct 19
Last Quarter
Oct 26
New
Nov 2
First Quarter

Hourly Weather History & Observations

Time (MDT) Temp. Windchill Dew Point Humidity Pressure Visibility Wind Dir Wind Speed Gust Speed Precip Events Conditions
12:08 AM 48.2 °F - 44.6 °F 87% 29.77 in 10.0 mi Calm Calm - N/A   Overcast
12:42 AM 48.2 °F - 44.6 °F 87% 29.76 in 10.0 mi Calm Calm - 0.00 in Rain Light Rain
12:55 AM 48.0 °F - 46.0 °F 93% 29.77 in 10.0 mi Calm Calm - 0.00 in Rain Light Rain
1:55 AM 46.9 °F - 46.0 °F 97% 29.76 in 10.0 mi Calm Calm - 0.01 in Rain Light Rain
2:55 AM 46.9 °F - 46.0 °F 97% 29.76 in 10.0 mi Calm Calm - 0.01 in   Overcast
3:14 AM 46.4 °F - 46.4 °F 100% 29.75 in 10.0 mi Calm Calm - N/A   Overcast
3:55 AM 46.9 °F - 46.0 °F 97% 29.75 in 10.0 mi Calm Calm - N/A   Overcast
4:55 AM 46.4 °F - 46.4 °F 100% 29.74 in 10.0 mi Calm Calm - N/A   Overcast
5:39 AM 46.4 °F - 46.4 °F 100% 29.74 in 7.0 mi Calm Calm - 0.00 in Rain Light Rain
5:55 AM 46.4 °F - 46.4 °F 100% 29.74 in 5.0 mi Calm Calm - N/A Rain Light Rain
6:04 AM 46.4 °F - 46.4 °F 100% 29.74 in 5.0 mi Calm Calm - 0.00 in Rain Light Rain
6:55 AM 46.9 °F - 46.0 °F 97% 29.75 in 10.0 mi Calm Calm - 0.03 in   Overcast
7:33 AM 48.2 °F - 46.4 °F 93% 29.75 in 7.0 mi Calm Calm - 0.04 in Rain Rain
7:47 AM 48.2 °F - 46.4 °F 93% 29.75 in 6.0 mi South 5.8 mph - 0.05 in Rain Light Rain
7:55 AM 48.0 °F - 46.9 °F 96% 29.76 in 6.0 mi South 5.8 mph - 0.05 in Rain Light Rain
8:03 AM 48.2 °F - 46.4 °F 93% 29.76 in 1.5 mi South 5.8 mph - 0.00 in Rain Light Rain
8:55 AM 48.0 °F - 46.9 °F 96% 29.78 in 1.5 mi South 5.8 mph - 0.05 in Rain Light Rain
9:09 AM 48.2 °F - 46.4 °F 93% 29.77 in 1.5 mi South 6.9 mph - 0.00 in Rain Light Rain
9:55 AM 48.0 °F - 46.0 °F 93% 29.79 in 1.5 mi SSE 8.1 mph - 0.02 in Rain Light Rain
10:37 AM 48.2 °F - 46.4 °F 93% 29.78 in 6.0 mi SSE 10.4 mph - 0.01 in Rain Light Rain
10:55 AM 48.0 °F - 46.9 °F 96% 29.80 in 6.0 mi South 9.2 mph - 0.02 in Rain Light Rain
11:02 AM 48.2 °F - 46.4 °F 93% 29.79 in 8.0 mi South 11.5 mph - 0.01 in Rain Light Rain
11:55 AM 48.9 °F - 46.9 °F 93% 29.82 in 8.0 mi SSE 9.2 mph - 0.02 in Rain Light Rain
12:02 PM 48.2 °F - 46.4 °F 93% 29.81 in 7.0 mi South 10.4 mph - 0.01 in Rain Light Rain
12:55 PM 48.9 °F - 46.0 °F 90% 29.84 in 7.0 mi South 9.2 mph - 0.06 in Rain Light Rain
1:55 PM 48.2 °F - 46.4 °F 93% 29.84 in 4.0 mi South 8.1 mph - N/A Rain Light Rain
2:55 PM 46.4 °F 41.5 °F 44.6 °F 93% 29.86 in 10.0 mi South 10.4 mph - N/A Rain Light Rain
3:55 PM 46.9 °F - 45.0 °F 93% 29.90 in 10.0 mi South 10.4 mph - 0.06 in Rain Light Rain
4:55 PM 46.9 °F - 45.0 °F 93% 29.92 in 7.0 mi SSE 11.5 mph - 0.09 in Rain Light Rain
5:55 PM 46.0 °F 40.2 °F 45.0 °F 96% 29.93 in 10.0 mi SE 12.7 mph - 0.04 in Rain Light Rain
6:55 PM 46.0 °F 40.2 °F 44.1 °F 93% 29.95 in 10.0 mi SSE 12.7 mph - 0.02 in Rain Light Rain
7:55 PM 46.4 °F 41.1 °F 44.6 °F 93% 29.96 in 10.0 mi SE 11.5 mph - N/A Rain Light Rain
8:55 PM 46.9 °F - 44.1 °F 90% 30.00 in 10.0 mi SE 10.4 mph - 0.03 in   Overcast
9:55 PM 46.9 °F - 44.1 °F 90% 30.03 in 10.0 mi SSE 6.9 mph - N/A   Overcast
10:55 PM 46.0 °F 43.9 °F 44.1 °F 93% 30.04 in 10.0 mi South 4.6 mph - N/A   Overcast
11:55 PM 46.9 °F - 43.0 °F 86% 30.07 in 10.0 mi Calm Calm - N/A   Overcast